{"data":{"norad_id":65313,"epoch":"2026-09-20T21:47:37.838112Z","epoch_age_seconds":123512,"freshness":"FRESH","line1":"1 65313U 25187J   26263.90807683 -.00000100  00000+0  51717-4 0  9997","line2":"2 65313  50.0060 222.5692 0000740   2.3791 357.7085 13.29322497 52444","mean_motion":13.29322497,"eccentricity":7.4e-5,"inclination_deg":50.006,"raan_deg":222.5692,"arg_perigee_deg":2.3791,"mean_anomaly_deg":357.7085,"bstar":5.1717e-5,"rev_number":5244,"period_min":108.32585796522,"perigee_km":1148.7627641423,"apogee_km":1149.8768277481,"semimajor_km":7527.4567959452,"source":"CELESTRAK","updated_at":"2026-09-21T09:00:15.248186Z"}}